| time (UTC) | temp C | wind direction | speed KPH | gust KPH | rain 1hr cm | rain 24hr cm | rain mn cm | humidity % | barometer mb |
| 20260510145810 | 8 | 323 | 8.0 | 11.3 | 0.00 | 0.00 | 0.00 | 41 | 984.0 |
| 20260510145309 | 8 | 334 | 8.0 | 12.9 | 0.00 | 0.00 | 0.00 | 43 | 983.9 |
| 20260510144809 | 8 | 336 | 6.4 | 11.3 | 0.00 | 0.00 | 0.00 | 44 | 983.8 |
| 20260510144308 | 8 | 345 | 3.2 | 6.4 | 0.00 | 0.00 | 0.00 | 45 | 983.8 |
| 20260510143808 | 8 | 342 | 6.4 | 9.7 | 0.00 | 0.00 | 0.00 | 48 | 983.8 |
| 20260510143308 | 8 | 336 | 6.4 | 9.7 | 0.00 | 0.00 | 0.00 | 49 | 983.7 |
| 20260510142807 | 8 | 322 | 3.2 | 9.7 | 0.00 | 0.00 | 0.00 | 50 | 983.6 |
| 20260510142307 | 8 | 9 | 3.2 | 8.0 | 0.00 | 0.00 | 0.00 | 46 | 983.6 |
| 20260510141245 | 7 | 21 | 8.0 | 9.7 | 0.00 | 0.00 | 0.00 | 48 | 983.5 |
| 20260510140224 | 7 | 11 | 6.4 | 12.9 | 0.00 | 0.00 | 0.00 | 53 | 983.4 |
| 20260510134642 | 7 | 359 | 8.0 | 12.9 | 0.00 | 0.00 | 0.00 | 53 | 983.3 |
| 20260510134142 | 7 | 335 | 8.0 | 11.3 | 0.00 | 0.00 | 0.00 | 53 | 983.2 |
| 20260510133641 | 7 | 323 | 8.0 | 17.7 | 0.00 | 0.00 | 0.00 | 55 | 983.1 |
| 20260510133141 | 7 | 322 | 11.3 | 14.5 | 0.00 | 0.00 | 0.00 | 55 | 983.1 |
| 20260510132641 | 7 | 308 | 6.4 | 9.7 | 0.00 | 0.00 | 0.00 | 58 | 983.1 |
| 20260510131620 | 7 | 356 | 6.4 | 11.3 | 0.00 | 0.00 | 0.00 | 58 | 983.1 |
| 20260510131120 | 7 | 10 | 6.4 | 9.7 | 0.00 | 0.00 | 0.00 | 56 | 983.0 |
| 20260510130620 | 7 | 9 | 8.0 | 14.5 | 0.00 | 0.00 | 0.00 | 57 | 983.0 |
| 20260510130119 | 7 | 350 | 9.7 | 14.5 | 0.00 | 0.00 | 0.00 | 59 | 982.9 |
| 20260510125619 | 7 | 334 | 9.7 | 14.5 | 0.00 | 0.00 | 0.00 | 60 | 982.8 |
| 20260510125119 | 6 | 334 | 9.7 | 14.5 | 0.00 | 0.00 | 0.00 | 59 | 982.8 |
| 20260510124619 | 6 | 7 | 9.7 | 14.5 | 0.00 | 0.00 | 0.00 | 59 | 982.8 |
| 20260510123558 | 6 | 351 | 6.4 | 9.7 | 0.00 | 0.00 | 0.00 | 61 | 982.7 |
| 20260510123057 | 6 | 339 | 12.9 | 16.1 | 0.00 | 0.00 | 0.00 | 64 | 982.6 |
| 20260510122036 | 6 | 350 | 6.4 | 12.9 | 0.00 | 0.00 | 0.00 | 67 | 982.6 |
| 20260510121536 | 5 | 334 | 9.7 | 14.5 | 0.00 | 0.00 | 0.00 | 68 | 982.5 |
| 20260510120515 | 5 | 7 | 6.4 | 9.7 | 0.00 | 0.00 | 0.00 | 69 | 982.5 |
| 20260510115453 | 5 | 334 | 9.7 | 12.9 | 0.00 | 0.00 | 0.00 | 70 | 982.4 |
| 20260510114953 | 5 | 339 | 6.4 | 8.0 | 0.00 | 0.00 | 0.00 | 71 | 982.4 |
| 20260510114453 | 5 | 345 | 6.4 | 9.7 | 0.00 | 0.00 | 0.00 | 72 | 982.4 |
| 20260510113953 | 5 | 349 | 4.8 | 8.0 | 0.00 | 0.00 | 0.00 | 72 | 982.1 |
| 20260510113453 | 4 | 334 | 4.8 | 8.0 | 0.00 | 0.00 | 0.00 | 72 | 982.1 |
| 20260510112952 | 4 | 342 | 4.8 | 6.4 | 0.00 | 0.00 | 0.00 | 73 | 982.0 |
| 20260510112452 | 3 | 337 | 6.4 | 8.0 | 0.00 | 0.00 | 0.00 | 73 | 981.9 |
| 20260510111952 | 3 | 344 | 6.4 | 9.7 | 0.00 | 0.00 | 0.00 | 74 | 981.9 |
| 20260510111452 | 3 | 341 | 3.2 | 8.0 | 0.00 | 0.00 | 0.00 | 75 | 981.9 |
| 20260510110952 | 3 | 316 | 4.8 | 6.4 | 0.00 | 0.00 | 0.00 | 75 | 981.8 |
| 20260510110452 | 3 | 315 | 4.8 | 8.0 | 0.00 | 0.00 | 0.00 | 75 | 981.7 |
| 20260510105952 | 3 | 320 | 4.8 | 8.0 | 0.00 | 0.00 | 0.00 | 75 | 981.7 |
| 20260510105451 | 2 | 300 | 3.2 | 4.8 | 0.00 | 0.00 | 0.00 | 77 | 981.7 |
| 20260510104951 | 2 | 261 | 1.6 | 3.2 | 0.00 | 0.00 | 0.00 | 78 | 981.7 |
| 20260510104451 | 2 | 265 | 3.2 | 3.2 | 0.00 | 0.00 | 0.00 | 79 | 981.5 |
| 20260510103429 | 1 | 261 | 1.6 | 3.2 | 0.00 | 0.00 | 0.00 | 80 | 981.3 |
| 20260510102929 | 1 | 289 | 1.6 | 3.2 | 0.00 | 0.00 | 0.00 | 80 | 981.2 |
| 20260510101908 | 1 | 0 | 0.0 | 0.0 | 0.00 | 0.00 | 0.00 | 80 | 981.0 |
| 20260510101407 | 1 | 247 | 3.2 | 3.2 | 0.00 | 0.00 | 0.00 | 80 | 980.9 |
| 20260510100907 | 1 | 248 | 1.6 | 3.2 | 0.00 | 0.00 | 0.00 | 80 | 980.8 |
| 20260510095846 | 1 | 252 | 3.2 | 3.2 | 0.00 | 0.00 | 0.00 | 83 | 980.7 |
| 20260510095346 | 1 | 0 | 0.0 | 0.0 | 0.00 | 0.00 | 0.00 | 83 | 980.6 |
| 20260510094846 | 1 | 0 | 0.0 | 0.0 | 0.00 | 0.00 | 0.00 | 83 | 980.5 |
| 20260510094345 | 1 | 0 | 0.0 | 0.0 | 0.00 | 0.00 | 0.00 | 83 | 980.3 |
| 20260510093845 | 1 | 0 | 0.0 | 0.0 | 0.00 | 0.00 | 0.00 | 83 | 980.3 |
| 20260510093345 | 1 | 0 | 0.0 | 0.0 | 0.00 | 0.00 | 0.00 | 83 | 980.1 |
| 20260510092845 | 1 | 0 | 0.0 | 0.0 | 0.00 | 0.00 | 0.00 | 83 | 980.0 |
| 20260510092344 | 1 | 0 | 0.0 | 0.0 | 0.00 | 0.00 | 0.00 | 83 | 980.0 |
| 20260510091844 | 1 | 228 | 1.6 | 3.2 | 0.00 | 0.00 | 0.00 | 82 | 979.9 |
| 20260510091344 | 1 | 242 | 3.2 | 3.2 | 0.00 | 0.00 | 0.00 | 82 | 979.8 |
| 20260510090844 | 1 | 246 | 1.6 | 3.2 | 0.00 | 0.00 | 0.00 | 81 | 979.7 |
| 20260510085305 | 2 | 235 | 1.6 | 1.6 | 0.00 | 0.00 | 0.00 | 80 | 979.4 |
| 20260510084801 | 2 | 250 | 1.6 | 3.2 | 0.00 | 0.00 | 0.00 | 79 | 979.3 |
| 20260510084301 | 2 | 0 | 0.0 | 0.0 | 0.00 | 0.00 | 0.00 | 80 | 979.1 |
| 20260510083801 | 2 | 240 | 1.6 | 3.2 | 0.00 | 0.00 | 0.00 | 79 | 979.1 |
| 20260510083301 | 2 | 250 | 1.6 | 3.2 | 0.00 | 0.00 | 0.00 | 79 | 979.0 |
| 20260510082801 | 2 | 0 | 0.0 | 0.0 | 0.00 | 0.00 | 0.00 | 79 | 979.0 |
| 20260510082301 | 2 | 0 | 0.0 | 0.0 | 0.00 | 0.00 | 0.00 | 78 | 978.9 |
| 20260510081801 | 2 | 0 | 0.0 | 0.0 | 0.00 | 0.00 | 0.00 | 77 | 978.9 |
| 20260510075657 | 3 | 259 | 3.2 | 3.2 | 0.00 | 0.00 | 0.00 | 74 | 978.8 |
| 20260510075157 | 3 | 260 | 3.2 | 3.2 | 0.00 | 0.00 | 0.00 | 73 | 978.7 |
| 20260510074656 | 3 | 261 | 3.2 | 3.2 | 0.00 | 0.00 | 0.00 | 72 | 978.6 |
| 20260510074156 | 4 | 288 | 3.2 | 4.8 | 0.00 | 0.00 | 0.00 | 72 | 978.6 |
| 20260510073656 | 4 | 287 | 1.6 | 3.2 | 0.00 | 0.00 | 0.00 | 72 | 978.5 |
| 20260510073155 | 4 | 268 | 1.6 | 3.2 | 0.00 | 0.00 | 0.00 | 71 | 978.5 |
| 20260510072655 | 4 | 0 | 0.0 | 0.0 | 0.00 | 0.00 | 0.00 | 71 | 978.3 |
| 20260510072155 | 5 | 308 | 1.6 | 4.8 | 0.00 | 0.00 | 0.00 | 70 | 978.3 |
| 20260510071655 | 5 | 0 | 0.0 | 0.0 | 0.00 | 0.00 | 0.00 | 70 | 978.3 |
| 20260510070112 | 5 | 34 | 3.2 | 6.4 | 0.00 | 0.00 | 0.00 | 67 | 978.3 |
| 20260510065612 | 5 | 341 | 3.2 | 4.8 | 0.00 | 0.00 | 0.00 | 67 | 978.3 |
| 20260510065112 | 5 | 2 | 1.6 | 4.8 | 0.00 | 0.00 | 0.00 | 66 | 978.3 |
| 20260510064612 | 6 | 21 | 4.8 | 8.0 | 0.00 | 0.00 | 0.00 | 65 | 978.0 |
| 20260510064112 | 6 | 14 | 3.2 | 6.4 | 0.00 | 0.00 | 0.00 | 64 | 978.0 |
| 20260510063611 | 6 | 358 | 3.2 | 4.8 | 0.00 | 0.00 | 0.00 | 64 | 978.0 |
| 20260510062550 | 6 | 7 | 4.8 | 8.0 | 0.00 | 0.00 | 0.00 | 63 | 978.2 |
| 20260510061007 | 6 | 26 | 4.8 | 8.0 | 0.00 | 0.00 | 0.00 | 64 | 978.0 |
| 20260510055946 | 6 | 344 | 4.8 | 9.7 | 0.00 | 0.00 | 0.00 | 66 | 978.0 |
| 20260510053842 | 7 | 321 | 3.2 | 4.8 | 0.00 | 0.00 | 0.00 | 64 | 977.7 |
| 20260510053342 | 7 | 27 | 3.2 | 9.7 | 0.00 | 0.00 | 0.00 | 65 | 977.6 |
| 20260510052841 | 7 | 344 | 6.4 | 8.0 | 0.00 | 0.00 | 0.00 | 65 | 977.5 |
| 20260510052341 | 7 | 1 | 3.2 | 6.4 | 0.00 | 0.00 | 0.00 | 64 | 977.5 |
| 20260510051841 | 7 | 339 | 3.2 | 6.4 | 0.00 | 0.00 | 0.00 | 64 | 977.4 |
| 20260510051340 | 7 | 329 | 1.6 | 6.4 | 0.00 | 0.00 | 0.00 | 65 | 977.3 |
| 20260510050840 | 7 | 301 | 1.6 | 3.2 | 0.00 | 0.00 | 0.00 | 66 | 977.2 |
| 20260510050340 | 7 | 290 | 1.6 | 4.8 | 0.00 | 0.00 | 0.00 | 68 | 977.1 |
| 20260510045840 | 7 | 345 | 4.8 | 6.4 | 0.00 | 0.00 | 0.00 | 69 | 977.1 |
| 20260510045340 | 7 | 319 | 3.2 | 4.8 | 0.00 | 0.00 | 0.00 | 69 | 977.1 |
| 20260510044317 | 7 | 277 | 1.6 | 1.6 | 0.00 | 0.00 | 0.00 | 69 | 976.9 |
| 20260510043817 | 7 | 195 | 1.6 | 3.2 | 0.00 | 0.00 | 0.00 | 69 | 976.8 |
| 20260510043317 | 8 | 256 | 1.6 | 1.6 | 0.00 | 0.00 | 0.00 | 69 | 976.8 |
| 20260510042817 | 8 | 330 | 4.8 | 4.8 | 0.00 | 0.00 | 0.00 | 68 | 976.7 |
| 20260510042317 | 8 | 261 | 0.0 | 1.6 | 0.00 | 0.00 | 0.00 | 67 | 976.5 |
| 20260510041817 | 8 | 201 | 1.6 | 3.2 | 0.00 | 0.00 | 0.00 | 66 | 976.3 |
| 20260510041316 | 8 | 87 | 1.6 | 3.2 | 0.00 | 0.00 | 0.00 | 65 | 976.1 |
| 20260510040816 | 8 | 23 | 1.6 | 3.2 | 0.00 | 0.00 | 0.00 | 65 | 976.2 |
| 20260510040316 | 8 | 150 | 3.2 | 4.8 | 0.00 | 0.00 | 0.00 | 64 | 976.3 |
| 20260510035816 | 8 | 11 | 1.6 | 3.2 | 0.00 | 0.00 | 0.00 | 64 | 976.2 |
| 20260510035316 | 9 | 351 | 1.6 | 4.8 | 0.00 | 0.00 | 0.00 | 63 | 976.3 |
| 20260510034816 | 9 | 352 | 3.2 | 6.4 | 0.00 | 0.00 | 0.00 | 62 | 976.0 |
| 20260510034315 | 9 | 22 | 4.8 | 8.0 | 0.00 | 0.00 | 0.00 | 62 | 975.9 |
| 20260510033815 | 9 | 39 | 4.8 | 6.4 | 0.00 | 0.00 | 0.00 | 63 | 976.2 |
| 20260510033315 | 10 | 343 | 4.8 | 8.0 | 0.00 | 0.00 | 0.00 | 63 | 976.1 |
| 20260510032815 | 10 | 1 | 3.2 | 6.4 | 0.00 | 0.00 | 0.00 | 63 | 975.7 |
| 20260510032315 | 10 | 48 | 4.8 | 6.4 | 0.00 | 0.00 | 0.00 | 62 | 975.7 |
| 20260510031814 | 10 | 116 | 1.6 | 3.2 | 0.00 | 0.00 | 0.00 | 63 | 975.9 |
| 20260510031314 | 10 | 341 | 4.8 | 6.4 | 0.00 | 0.00 | 0.00 | 62 | 975.7 |
| 20260510030814 | 10 | 49 | 3.2 | 4.8 | 0.00 | 0.00 | 0.00 | 63 | 975.1 |
| 20260510030314 | 10 | 102 | 3.2 | 6.4 | 0.00 | 0.00 | 0.00 | 61 | 975.1 |
| 20260510025253 | 11 | 137 | 4.8 | 6.4 | 0.00 | 0.00 | 0.00 | 61 | 975.2 |
| 20260510024753 | 11 | 345 | 1.6 | 3.2 | 0.00 | 0.00 | 0.00 | 61 | 975.2 |
| 20260510024252 | 11 | 37 | 4.8 | 9.7 | 0.00 | 0.00 | 0.00 | 61 | 975.2 |
| 20260510023752 | 11 | 330 | 3.2 | 4.8 | 0.00 | 0.00 | 0.00 | 61 | 975.2 |
| 20260510023252 | 11 | 348 | 4.8 | 6.4 | 0.00 | 0.00 | 0.00 | 62 | 975.1 |
| 20260510022230 | 11 | 25 | 4.8 | 6.4 | 0.00 | 0.00 | 0.00 | 61 | 974.6 |
| 20260510021730 | 11 | 38 | 4.8 | 8.0 | 0.00 | 0.00 | 0.00 | 61 | 974.5 |
| 20260510021229 | 11 | 44 | 4.8 | 8.0 | 0.00 | 0.00 | 0.00 | 63 | 974.4 |
| 20260510020729 | 12 | 29 | 4.8 | 9.7 | 0.00 | 0.00 | 0.00 | 65 | 974.2 |
| 20260510020229 | 12 | 11 | 1.6 | 4.8 | 0.00 | 0.00 | 0.00 | 65 | 974.4 |
| 20260510015728 | 12 | 19 | 3.2 | 6.4 | 0.00 | 0.00 | 0.00 | 64 | 974.3 |
| 20260510015227 | 12 | 0 | 4.8 | 8.0 | 0.00 | 0.00 | 0.00 | 63 | 974.1 |
| 20260510013124 | 12 | 33 | 1.6 | 3.2 | 0.00 | 0.00 | 0.00 | 67 | 973.6 |
| 20260510012102 | 12 | 0 | 6.4 | 8.0 | 0.00 | 0.00 | 0.00 | 68 | 973.5 |
| 20260510011602 | 12 | 343 | 1.6 | 4.8 | 0.00 | 0.00 | 0.00 | 75 | 973.3 |
| 20260510011102 | 12 | 0 | 0.0 | 0.0 | 0.00 | 0.00 | 0.00 | 80 | 973.3 |
| 20260510010602 | 12 | 34 | 1.6 | 3.2 | 0.00 | 0.00 | 0.00 | 80 | 973.1 |
| 20260510005040 | 12 | 241 | 1.6 | 1.6 | 0.00 | 0.00 | 0.00 | 80 | 972.8 |
| 20260510004540 | 12 | 252 | 3.2 | 3.2 | 0.00 | 0.00 | 0.00 | 80 | 972.7 |
| 20260510004040 | 12 | 242 | 1.6 | 1.6 | 0.00 | 0.00 | 0.00 | 80 | 972.7 |
| 20260510003540 | 12 | 266 | 3.2 | 4.8 | 0.00 | 0.00 | 0.00 | 80 | 972.6 |
| 20260510003040 | 12 | 0 | 0.0 | 0.0 | 0.00 | 0.00 | 0.00 | 80 | 972.5 |
| 20260510002540 | 13 | 327 | 1.6 | 3.2 | 0.00 | 0.00 | 0.00 | 80 | 972.3 |
| 20260510002039 | 13 | 0 | 0.0 | 0.0 | 0.00 | 0.00 | 0.00 | 79 | 972.2 |
| 20260510001539 | 13 | 0 | 0.0 | 0.0 | 0.00 | 0.00 | 0.00 | 78 | 972.1 |
| 20260510001039 | 13 | 38 | 3.2 | 3.2 | 0.00 | 0.00 | 0.00 | 77 | 971.9 |
| 20260510000539 | 13 | 0 | 0.0 | 0.0 | 0.00 | 0.00 | 0.00 | 77 | 971.7 |
| 20260510000038 | 13 | 250 | 3.2 | 4.8 | 0.00 | 0.00 | 0.00 | 76 | 971.6 |
| 20260509235016 | 13 | 225 | 1.6 | 4.8 | 0.00 | 0.00 | 0.00 | 76 | 971.6 |
| 20260509234516 | 13 | 291 | 3.2 | 6.4 | 0.00 | 0.00 | 0.00 | 75 | 971.6 |
| 20260509234016 | 13 | 255 | 3.2 | 11.3 | 0.00 | 0.00 | 0.00 | 75 | 971.5 |
| 20260509233515 | 14 | 249 | 6.4 | 9.7 | 0.00 | 0.00 | 0.00 | 74 | 971.4 |
| 20260509233015 | 14 | 250 | 6.4 | 9.7 | 0.00 | 0.00 | 0.00 | 73 | 971.2 |
| 20260509231953 | 15 | 248 | 4.8 | 6.4 | 0.00 | 0.00 | 0.00 | 73 | 971.2 |
| 20260509231452 | 15 | 259 | 4.8 | 8.0 | 0.00 | 0.00 | 0.00 | 73 | 971.2 |
| 20260509230952 | 15 | 247 | 4.8 | 6.4 | 0.00 | 0.00 | 0.00 | 73 | 971.1 |
| 20260509230452 | 15 | 251 | 4.8 | 8.0 | 0.00 | 0.00 | 0.00 | 72 | 971.0 |
| 20260509225431 | 15 | 210 | 3.2 | 4.8 | 0.00 | 0.00 | 0.00 | 71 | 970.8 |
| 20260509224931 | 15 | 216 | 1.6 | 4.8 | 0.00 | 0.00 | 0.00 | 72 | 970.8 |
| 20260509224430 | 15 | 246 | 3.2 | 6.4 | 0.00 | 0.00 | 0.00 | 72 | 970.7 |
| 20260509223409 | 14 | 249 | 6.4 | 9.7 | 0.00 | 0.00 | 0.00 | 72 | 970.5 |
| 20260509222909 | 14 | 226 | 3.2 | 6.4 | 0.00 | 0.00 | 0.00 | 74 | 970.5 |
| 20260509222409 | 14 | 267 | 8.0 | 9.7 | 0.00 | 0.00 | 0.00 | 73 | 970.4 |
| 20260509221908 | 13 | 243 | 6.4 | 8.0 | 0.00 | 0.00 | 0.00 | 73 | 970.4 |
| 20260509220325 | 12 | 266 | 8.0 | 11.3 | 0.00 | 0.00 | 0.00 | 75 | 970.4 |
| 20260509215825 | 12 | 256 | 4.8 | 9.7 | 0.00 | 0.00 | 0.00 | 77 | 970.4 |
| 20260509215325 | 12 | 257 | 6.4 | 9.7 | 0.00 | 0.00 | 0.00 | 78 | 970.4 |
| 20260509214304 | 11 | 199 | 4.8 | 9.7 | 0.00 | 0.00 | 0.00 | 81 | 970.6 |
| 20260509213803 | 11 | 266 | 4.8 | 12.9 | 0.00 | 0.00 | 0.00 | 81 | 970.7 |
| 20260509213303 | 11 | 230 | 6.4 | 9.7 | 0.00 | 0.00 | 0.00 | 81 | 970.8 |
| 20260509212803 | 11 | 268 | 8.0 | 17.7 | 0.00 | 0.00 | 0.00 | 81 | 970.8 |
| 20260509211742 | 11 | 257 | 3.2 | 6.4 | 0.00 | 0.00 | 0.00 | 81 | 970.8 |
| 20260509211242 | 11 | 240 | 4.8 | 9.7 | 0.00 | 0.00 | 0.00 | 82 | 970.8 |
| 20260509210741 | 11 | 259 | 9.7 | 12.9 | 0.00 | 0.00 | 0.00 | 81 | 970.7 |
| 20260509210241 | 11 | 256 | 8.0 | 11.3 | 0.00 | 0.00 | 0.00 | 82 | 970.8 |
| 20260509205740 | 10 | 258 | 6.4 | 11.3 | 0.00 | 0.00 | 0.00 | 84 | 970.8 |
| 20260509204719 | 10 | 259 | 6.4 | 9.7 | 0.00 | 0.00 | 0.00 | 83 | 970.8 |
| 20260509204219 | 10 | 263 | 11.3 | 16.1 | 0.00 | 0.00 | 0.00 | 83 | 971.1 |
| 20260509203719 | 10 | 271 | 12.9 | 20.9 | 0.00 | 0.00 | 0.00 | 84 | 971.0 |
| 20260509203219 | 11 | 271 | 9.7 | 16.1 | 0.00 | 0.00 | 0.00 | 82 | 971.5 |
| 20260509202718 | 12 | 313 | 9.7 | 14.5 | 0.00 | 0.00 | 0.00 | 77 | 971.7 |
| 20260509202218 | 14 | 341 | 17.7 | 25.7 | 0.00 | 0.00 | 0.00 | 70 | 971.7 |
| 20260509201156 | 15 | 258 | 16.1 | 24.1 | 0.00 | 0.00 | 0.00 | 71 | 969.8 |
| 20260509200656 | 15 | 265 | 12.9 | 27.4 | 0.00 | 0.00 | 0.00 | 71 | 969.9 |
| 20260509200156 | 15 | 250 | 12.9 | 17.7 | 0.00 | 0.00 | 0.00 | 71 | 969.9 |
| 20260509195656 | 15 | 252 | 16.1 | 27.4 | 0.00 | 0.00 | 0.00 | 71 | 970.0 |
| 20260509195156 | 15 | 265 | 20.9 | 38.6 | 0.00 | 0.00 | 0.00 | 71 | 970.0 |
| 20260509194655 | 15 | 242 | 16.1 | 40.2 | 0.00 | 0.00 | 0.00 | 71 | 969.9 |
| 20260509193634 | 15 | 255 | 11.3 | 17.7 | 0.00 | 0.00 | 0.00 | 71 | 970.0 |
| 20260509193134 | 15 | 247 | 8.0 | 12.9 | 0.00 | 0.00 | 0.00 | 71 | 970.0 |
| 20260509192634 | 15 | 253 | 17.7 | 27.4 | 0.00 | 0.00 | 0.00 | 71 | 969.8 |
| 20260509192134 | 15 | 245 | 11.3 | 16.1 | 0.00 | 0.00 | 0.00 | 71 | 970.0 |
| 20260509191633 | 15 | 228 | 8.0 | 17.7 | 0.00 | 0.00 | 0.00 | 72 | 970.2 |
| 20260509190612 | 14 | 243 | 9.7 | 17.7 | 0.00 | 0.00 | 0.00 | 72 | 970.3 |
| 20260509190112 | 15 | 231 | 4.8 | 9.7 | 0.00 | 0.00 | 0.00 | 72 | 970.3 |
| 20260509185612 | 15 | 223 | 9.7 | 17.7 | 0.00 | 0.00 | 0.00 | 72 | 970.2 |
| 20260509184551 | 14 | 264 | 14.5 | 19.3 | 0.00 | 0.00 | 0.00 | 72 | 970.3 |
| 20260509183530 | 14 | 229 | 6.4 | 11.3 | 0.00 | 0.00 | 0.00 | 73 | 970.5 |
| 20260509183029 | 14 | 225 | 8.0 | 14.5 | 0.00 | 0.00 | 0.00 | 73 | 970.6 |
| 20260509182529 | 14 | 239 | 6.4 | 14.5 | 0.00 | 0.00 | 0.00 | 75 | 970.7 |
| 20260509182029 | 13 | 192 | 8.0 | 11.3 | 0.00 | 0.00 | 0.00 | 75 | 970.9 |
| 20260509181529 | 14 | 258 | 9.7 | 19.3 | 0.00 | 0.00 | 0.00 | 75 | 971.1 |
| 20260509181029 | 14 | 211 | 4.8 | 8.0 | 0.00 | 0.00 | 0.00 | 74 | 971.3 |
| 20260509180529 | 14 | 255 | 4.8 | 8.0 | 0.00 | 0.00 | 0.00 | 73 | 971.3 |
| 20260509180028 | 15 | 245 | 8.0 | 16.1 | 0.00 | 0.00 | 0.00 | 73 | 971.1 |
| 20260509175528 | 15 | 252 | 8.0 | 12.9 | 0.00 | 0.00 | 0.00 | 73 | 970.9 |
| 20260509175027 | 15 | 262 | 8.0 | 12.9 | 0.00 | 0.00 | 0.00 | 73 | 970.9 |
| 20260509174526 | 15 | 196 | 8.0 | 14.5 | 0.00 | 0.00 | 0.00 | 72 | 970.9 |
| 20260509174026 | 15 | 193 | 6.4 | 11.3 | 0.00 | 0.00 | 0.00 | 73 | 970.8 |
| 20260509173526 | 15 | 186 | 11.3 | 19.3 | 0.00 | 0.00 | 0.00 | 74 | 970.7 |
| 20260509173025 | 15 | 190 | 8.0 | 16.1 | 0.00 | 0.00 | 0.00 | 72 | 970.8 |
| 20260509172525 | 15 | 249 | 9.7 | 19.3 | 0.00 | 0.00 | 0.00 | 73 | 970.9 |
| 20260509172025 | 15 | 241 | 9.7 | 16.1 | 0.00 | 0.00 | 0.00 | 73 | 970.9 |
| 20260509171525 | 15 | 206 | 11.3 | 17.7 | 0.00 | 0.00 | 0.00 | 72 | 971.2 |
| 20260509171025 | 15 | 247 | 8.0 | 12.9 | 0.00 | 0.00 | 0.00 | 73 | 971.3 |
| 20260509170525 | 15 | 253 | 8.0 | 14.5 | 0.00 | 0.00 | 0.00 | 72 | 971.2 |
| 20260509170024 | 15 | 210 | 6.4 | 16.1 | 0.00 | 0.00 | 0.00 | 71 | 971.2 |
| 20260509165524 | 15 | 252 | 6.4 | 11.3 | 0.00 | 0.00 | 0.00 | 72 | 971.3 |
| 20260509164503 | 15 | 201 | 6.4 | 9.7 | 0.00 | 0.00 | 0.00 | 72 | 971.6 |
| 20260509164003 | 15 | 197 | 4.8 | 9.7 | 0.00 | 0.00 | 0.00 | 72 | 971.6 |
| 20260509162942 | 15 | 265 | 4.8 | 12.9 | 0.00 | 0.00 | 0.00 | 70 | 971.8 |
| 20260509162441 | 15 | 207 | 6.4 | 11.3 | 0.00 | 0.00 | 0.00 | 71 | 971.9 |
| 20260509161940 | 15 | 198 | 9.7 | 17.7 | 0.00 | 0.00 | 0.00 | 71 | 971.9 |
| 20260509160919 | 15 | 169 | 9.7 | 12.9 | 0.00 | 0.00 | 0.00 | 72 | 972.3 |
| 20260509155858 | 15 | 238 | 8.0 | 12.9 | 0.00 | 0.00 | 0.00 | 71 | 972.8 |
| 20260509155357 | 14 | 271 | 6.4 | 9.7 | 0.00 | 0.00 | 0.00 | 71 | 972.7 |
| 20260509154857 | 14 | 230 | 4.8 | 8.0 | 0.00 | 0.00 | 0.00 | 72 | 972.7 |
| 20260509154357 | 15 | 215 | 4.8 | 6.4 | 0.00 | 0.00 | 0.00 | 72 | 972.8 |
| 20260509153856 | 15 | 197 | 6.4 | 11.3 | 0.00 | 0.00 | 0.00 | 71 | 972.9 |
| 20260509153356 | 15 | 221 | 6.4 | 11.3 | 0.00 | 0.00 | 0.00 | 71 | 972.8 |
| 20260509152855 | 15 | 232 | 4.8 | 8.0 | 0.00 | 0.00 | 0.00 | 72 | 972.7 |
| 20260509152355 | 15 | 243 | 4.8 | 9.7 | 0.00 | 0.00 | 0.00 | 71 | 972.7 |
| 20260509151855 | 15 | 247 | 4.8 | 6.4 | 0.00 | 0.00 | 0.00 | 73 | 972.7 |
| 20260509151355 | 14 | 182 | 9.7 | 14.5 | 0.00 | 0.00 | 0.00 | 73 | 972.6 |
| 20260509150854 | 14 | 199 | 4.8 | 8.0 | 0.00 | 0.00 | 0.00 | 74 | 972.6 |
| 20260509150354 | 14 | 183 | 8.0 | 12.9 | 0.00 | 0.00 | 0.00 | 74 | 972.8 |